Location: Dumpton Point
(51.3500°N, 1.4433°E)
Time: 13:45:33
(UTC+00:00)

Meteor 2-3 Rocket - Visible Passes

Search period start: 06 August 2020 00:00
Search period end: 16 August 2020 00:00
Orbit: 843 x 884 km, 81.2° (Epoch: 05 August)

Date Brightness Start Highest point End Pass type
(mag) Time Alt. Az. Time Alt. Az. Time Alt. Az.
06 Aug 5.4 20:42:34 10° SW 20:47:57 39° WNW 20:53:23 10° N visible
07 Aug 5.4 20:34:26 10° SW 20:39:50 39° WNW 20:45:16 10° N visible
08 Aug 7.4 03:45:49 10° NE 03:46:45 10° NE 03:47:41 10° NE visible
08 Aug 5.4 20:26:19 10° SW 20:31:43 39° WNW 20:37:10 10° N visible
09 Aug 7.4 03:37:48 10° NE 03:38:37 10° NE 03:39:27 10° NE visible
09 Aug 5.4 20:18:12 10° SW 20:23:36 39° WNW 20:29:03 10° N visible
10 Aug 7.5 03:29:47 10° NE 03:30:30 10° NE 03:31:13 10° NE visible
10 Aug 5.4 20:10:05 10° SW 20:15:29 39° WNW 20:20:57 10° N visible
11 Aug 7.5 03:21:49 10° NE 03:22:23 10° NE 03:22:58 10° NE visible
11 Aug 5.5 20:01:58 10° SW 20:07:23 39° WNW 20:12:50 10° N visible
12 Aug 7.5 03:13:52 10° NE 03:14:16 10° NE 03:14:39 10° NE visible
12 Aug 5.5 19:53:51 10° SW 19:59:16 40° WNW 20:04:43 10° N visible
